EZY212 LEPA-EDDM

Flight info

Callsign EZY212
Flight time N/A
Altitude 34000
Route MEROS DCT LAPIT/N0452F320 DCT CHELY DCT LUMAS DCT UNANA/N0453F300 DCT STP DCT RAPED DCT PIGOS DCT EKSID DCT NOSTA DCT NOPMU DCT VAKON DCT TAGIP DCT GUNGO DCT TISAX DCT IVKAL T102 NINUR T101 BETOS BETOS1B
Aircraft A320/M-SDE3FGHIRWY/LB1

Departure

Time 2026-05-05 08:30
Airport Palma de Mallorca Airport (LEPA)

Arrival

Time N/A
Airport Munich Airport (EDDM)
Time Latitude Longitude Altitude Speed Heading
2026-05-05 08:14 39.54848 2.73845 34 ft 0 kts 270°
2026-05-05 08:19 39.54848 2.73858 34 ft 3 kts 270°
2026-05-05 08:19 39.54848 2.73884 33 ft 3 kts 269°
2026-05-05 08:19 39.54848 2.73910 33 ft 3 kts 269°
2026-05-05 08:20 39.54848 2.73937 33 ft 3 kts 274°
2026-05-05 08:20 39.54846 2.73963 33 ft 3 kts 284°
2026-05-05 08:20 39.54839 2.73986 33 ft 3 kts 307°
2026-05-05 08:20 39.54828 2.74000 32 ft 2 kts 348°
2026-05-05 08:21 39.54824 2.74001 32 ft 0 kts 353°
2026-05-05 08:24 39.54827 2.74001 33 ft 2 kts 353°
2026-05-05 08:24 39.54860 2.73989 32 ft 6 kts 331°
2026-05-05 08:24 39.54898 2.73961 33 ft 9 kts 331°
2026-05-05 08:25 39.54959 2.74009 33 ft 11 kts 17°
2026-05-05 08:25 39.55038 2.73959 33 ft 18 kts 328°
2026-05-05 08:25 39.55159 2.73864 33 ft 22 kts 328°
2026-05-05 08:25 39.55297 2.73756 34 ft 24 kts 328°
2026-05-05 08:26 39.55442 2.73638 34 ft 25 kts 327°
2026-05-05 08:26 39.55592 2.73519 34 ft 26 kts 331°
2026-05-05 08:26 39.55665 2.73529 34 ft 6 kts 75°
2026-05-05 08:26 39.55717 2.73639 35 ft 21 kts 57°
2026-05-05 08:27 39.55795 2.73802 36 ft 20 kts 59°
2026-05-05 08:27 39.55865 2.73952 37 ft 18 kts 58°
2026-05-05 08:27 39.55928 2.74084 37 ft 16 kts 58°
2026-05-05 08:27 39.55985 2.74197 37 ft 14 kts 51°
2026-05-05 08:28 39.56054 2.74269 39 ft 12 kts 32°
2026-05-05 08:28 39.56118 2.74324 39 ft 10 kts 36°
2026-05-05 08:28 39.56187 2.74367 40 ft 18 kts
2026-05-05 08:28 39.56219 2.74241 39 ft 17 kts 237°
2026-05-05 08:29 39.56187 2.74173 38 ft 1 kts 239°
2026-05-05 08:29 39.56119 2.74029 38 ft 52 kts 238°
2026-05-05 08:29 39.55805 2.73370 32 ft 116 kts 238°
2026-05-05 08:30 39.54666 2.71008 524 ft 172 kts 238°
2026-05-05 08:30 39.54014 2.69699 1221 ft 176 kts 234°
2026-05-05 08:30 39.53338 2.68370 1933 ft 177 kts 234°
2026-05-05 08:30 39.52660 2.67042 2682 ft 174 kts 234°
2026-05-05 08:31 39.51981 2.65742 3320 ft 178 kts 233°
2026-05-05 08:31 39.51254 2.64409 3946 ft 182 kts 232°
2026-05-05 08:31 39.50476 2.63087 4491 ft 188 kts 231°
2026-05-05 08:31 39.49626 2.61741 4977 ft 196 kts 226°
2026-05-05 08:32 39.48553 2.60621 5447 ft 204 kts 211°
2026-05-05 08:32 39.47259 2.59772 5915 ft 212 kts 207°
2026-05-05 08:32 39.45876 2.58900 6328 ft 231 kts 206°
2026-05-05 08:32 39.44372 2.58009 6760 ft 249 kts 205°
2026-05-05 08:33 39.42716 2.57151 7385 ft 260 kts 197°
2026-05-05 08:33 39.40922 2.56984 8355 ft 259 kts 168°
2026-05-05 08:33 39.39421 2.58190 9369 ft 263 kts 134°
2026-05-05 08:33 39.38266 2.60098 9793 ft 282 kts 130°
2026-05-05 08:34 39.37041 2.62135 10210 ft 289 kts 132°
2026-05-05 08:34 39.35777 2.64182 10711 ft 294 kts 132°
2026-05-05 08:34 39.34522 2.66298 11229 ft 298 kts 130°
2026-05-05 08:34 39.33283 2.68442 11772 ft 303 kts 131°
2026-05-05 08:35 39.32023 2.70647 12378 ft 307 kts 131°
2026-05-05 08:35 39.30749 2.72897 13041 ft 312 kts 131°
2026-05-05 08:35 39.29538 2.75273 13713 ft 322 kts 121°
2026-05-05 08:35 39.28849 2.78021 14369 ft 331 kts 98°
2026-05-05 08:36 39.29149 2.80946 15163 ft 331 kts 69°
2026-05-05 08:36 39.30193 2.83630 15714 ft 338 kts 59°
2026-05-05 08:36 39.31448 2.86209 16408 ft 338 kts 54°
2026-05-05 08:36 39.32740 2.88696 17168 ft 337 kts 55°
2026-05-05 08:37 39.34012 2.91241 17932 ft 335 kts 57°
2026-05-05 08:37 39.35209 2.93819 18621 ft 335 kts 59°
2026-05-05 08:37 39.36380 2.96507 18887 ft 351 kts 60°
2026-05-05 08:37 39.37570 2.99372 18967 ft 370 kts 62°
2026-05-05 08:38 39.38755 3.02313 18977 ft 376 kts 62°
2026-05-05 08:38 39.39956 3.05324 18961 ft 378 kts 62°
2026-05-05 08:38 39.41170 3.08360 18974 ft 377 kts 62°
2026-05-05 08:38 39.42368 3.11338 18977 ft 376 kts 62°
2026-05-05 08:39 39.43582 3.14338 18977 ft 376 kts 62°
2026-05-05 08:39 39.44806 3.17357 18975 ft 376 kts 62°
2026-05-05 08:39 39.46021 3.20355 18973 ft 376 kts 62°
2026-05-05 08:39 39.47245 3.23372 18981 ft 376 kts 62°
2026-05-05 08:40 39.48445 3.26331 18981 ft 376 kts 62°
2026-05-05 08:40 39.49661 3.29339 18982 ft 376 kts 62°
2026-05-05 08:40 39.50876 3.32349 18982 ft 376 kts 62°
2026-05-05 08:40 39.52088 3.35353 18983 ft 376 kts 62°
2026-05-05 08:41 39.53290 3.38340 18993 ft 376 kts 62°
2026-05-05 08:41 39.54504 3.41359 18991 ft 377 kts 62°
2026-05-05 08:41 39.55714 3.44370 18990 ft 377 kts 62°
2026-05-05 08:41 39.56917 3.47372 18988 ft 377 kts 62°
2026-05-05 08:42 39.58124 3.50388 18986 ft 377 kts 62°
2026-05-05 08:42 39.59338 3.53414 18993 ft 377 kts 62°
2026-05-05 08:42 39.60551 3.56434 18992 ft 377 kts 62°
2026-05-05 08:42 39.61749 3.59422 18986 ft 377 kts 62°
2026-05-05 08:43 39.62961 3.62453 18988 ft 377 kts 62°
2026-05-05 08:43 39.64174 3.65493 18989 ft 377 kts 62°
2026-05-05 08:43 39.65389 3.68541 18985 ft 394 kts 62°
2026-05-05 08:43 39.66684 3.71791 18981 ft 410 kts 62°
2026-05-05 08:44 39.68018 3.75144 18978 ft 423 kts 62°
2026-05-05 08:44 39.69364 3.78526 19155 ft 429 kts 62°
2026-05-05 08:44 39.70748 3.82006 19652 ft 432 kts 62°
2026-05-05 08:44 39.72133 3.85499 20148 ft 436 kts 62°
2026-05-05 08:45 39.73509 3.88974 20623 ft 439 kts 62°
2026-05-05 08:45 39.74915 3.92521 21085 ft 443 kts 62°
2026-05-05 08:45 39.76329 3.96100 21573 ft 446 kts 63°
2026-05-05 08:45 39.77759 3.99730 22031 ft 450 kts 63°
2026-05-05 08:46 39.79169 4.03319 22455 ft 453 kts 63°
2026-05-05 08:46 39.80617 4.07001 22901 ft 457 kts 63°
2026-05-05 08:46 39.82078 4.10711 23342 ft 460 kts 63°
2026-05-05 08:46 39.83529 4.14401 23730 ft 464 kts 63°
2026-05-05 08:47 39.85014 4.18162 24085 ft 467 kts 60°
2026-05-05 08:47 39.86963 4.21521 24417 ft 466 kts 39°
2026-05-05 08:47 39.89651 4.23798 24753 ft 458 kts 18°
2026-05-05 08:47 39.92659 4.24904 25083 ft 450 kts
2026-05-05 08:48 39.95775 4.25271 25452 ft 447 kts 355°
2026-05-05 08:48 39.98890 4.25355 25790 ft 448 kts 354°
2026-05-05 08:48 40.02001 4.25489 26135 ft 453 kts 356°
2026-05-05 08:48 40.05181 4.25843 26478 ft 459 kts 360°
2026-05-05 08:49 40.08366 4.26439 26826 ft 464 kts
2026-05-05 08:49 40.11517 4.27206 27165 ft 468 kts
2026-05-05 08:49 40.14737 4.28081 27499 ft 471 kts
2026-05-05 08:49 40.17958 4.28971 27842 ft 473 kts
2026-05-05 08:50 40.21165 4.29823 28158 ft 475 kts
2026-05-05 08:50 40.24425 4.30642 28474 ft 477 kts
2026-05-05 08:50 40.27719 4.31428 28788 ft 479 kts
2026-05-05 08:50 40.30977 4.32180 29090 ft 481 kts
2026-05-05 08:51 40.34299 4.32940 29386 ft 484 kts
2026-05-05 08:51 40.37644 4.33709 29662 ft 486 kts
2026-05-05 08:51 40.40940 4.34476 29993 ft 488 kts
2026-05-05 08:51 40.44297 4.35269 30253 ft 490 kts
2026-05-05 08:52 40.47672 4.36075 30499 ft 492 kts
2026-05-05 08:52 40.51045 4.36887 30739 ft 494 kts
2026-05-05 08:52 40.54399 4.37697 30970 ft 495 kts
2026-05-05 08:52 40.57810 4.38518 31207 ft 497 kts
2026-05-05 08:53 40.61224 4.39338 31423 ft 499 kts
2026-05-05 08:53 40.64659 4.40160 31639 ft 500 kts
2026-05-05 08:53 40.68059 4.40972 31848 ft 502 kts
2026-05-05 08:53 40.71517 4.41795 32057 ft 503 kts
2026-05-05 08:54 40.74978 4.42620 32266 ft 505 kts
2026-05-05 08:54 40.78418 4.43446 32472 ft 507 kts
2026-05-05 08:54 40.81899 4.44287 32677 ft 508 kts
2026-05-05 08:54 40.85389 4.45133 32894 ft 510 kts
2026-05-05 08:55 40.88842 4.45971 32974 ft 511 kts
2026-05-05 08:55 40.95855 4.47668 32975 ft 510 kts
2026-05-05 08:56 41.02813 4.49351 32975 ft 510 kts
2026-05-05 08:56 41.09810 4.51056 32961 ft 504 kts
2026-05-05 08:57 41.16632 4.52724 32976 ft 497 kts
2026-05-05 08:57 41.23410 4.54379 32969 ft 497 kts
2026-05-05 08:58 41.30216 4.56034 32968 ft 497 kts
2026-05-05 08:58 41.37009 4.57696 32957 ft 497 kts
2026-05-05 08:59 41.43806 4.59376 32979 ft 497 kts
2026-05-05 08:59 41.50635 4.61060 32970 ft 497 kts
2026-05-05 09:00 41.57434 4.62731 32977 ft 497 kts
2026-05-05 09:00 41.64228 4.64409 32978 ft 497 kts
2026-05-05 09:01 41.71034 4.66330 32971 ft 505 kts 15°
2026-05-05 09:01 41.74195 4.68371 32974 ft 513 kts 30°
2026-05-05 09:01 41.76989 4.71416 32975 ft 519 kts 43°
2026-05-05 09:02 41.82113 4.78213 32975 ft 520 kts 43°
2026-05-05 09:02 41.87239 4.85020 32972 ft 520 kts 43°
2026-05-05 09:03 41.92366 4.91814 32982 ft 519 kts 43°
2026-05-05 09:03 41.97522 4.98652 32977 ft 519 kts 43°
2026-05-05 09:04 42.02635 5.05461 32972 ft 519 kts 43°
2026-05-05 09:04 42.07744 5.12298 32972 ft 519 kts 43°
2026-05-05 09:05 42.12871 5.19162 32981 ft 518 kts 43°
2026-05-05 09:05 42.17962 5.25998 32971 ft 518 kts 43°
2026-05-05 09:06 42.22221 5.31721 32963 ft 518 kts 43°
2026-05-05 09:06 42.28151 5.39713 32990 ft 517 kts 44°
2026-05-05 09:07 42.32401 5.45451 32967 ft 516 kts 44°
2026-05-05 09:07 42.37458 5.52304 32969 ft 516 kts 44°
2026-05-05 09:08 42.42534 5.59198 32970 ft 516 kts 44°
2026-05-05 09:08 42.47587 5.66083 32988 ft 516 kts 44°
2026-05-05 09:09 42.52663 5.72995 32956 ft 515 kts 44°
2026-05-05 09:09 42.57683 5.79848 32964 ft 515 kts 44°
2026-05-05 09:10 42.62733 5.86778 32964 ft 514 kts 44°
2026-05-05 09:10 42.67762 5.93682 32964 ft 514 kts 44°
2026-05-05 09:11 42.72773 6.00585 32958 ft 514 kts 44°
2026-05-05 09:11 42.77818 6.07571 32956 ft 514 kts 44°
2026-05-05 09:12 42.82810 6.14490 32960 ft 514 kts 44°
2026-05-05 09:12 42.88022 6.21094 32955 ft 514 kts 38°
2026-05-05 09:13 42.93510 6.27371 32968 ft 514 kts 38°
2026-05-05 09:13 42.98980 6.33625 32969 ft 514 kts 38°
2026-05-05 09:14 43.04476 6.39946 32968 ft 515 kts 39°
2026-05-05 09:14 43.09943 6.46259 32963 ft 516 kts 39°
2026-05-05 09:15 43.15437 6.52615 32959 ft 516 kts 39°
2026-05-05 09:15 43.20872 6.58951 32958 ft 516 kts 41°
2026-05-05 09:15 43.23272 6.62633 32959 ft 517 kts 54°
2026-05-05 09:16 43.25404 6.66645 32962 ft 517 kts 54°
2026-05-05 09:16 43.29596 6.74590 32961 ft 517 kts 54°
2026-05-05 09:17 43.33816 6.82637 32972 ft 517 kts 54°
2026-05-05 09:17 43.38008 6.90625 32975 ft 517 kts 54°
2026-05-05 09:18 43.42224 6.98655 33005 ft 517 kts 54°
2026-05-05 09:18 43.46419 7.06659 32975 ft 517 kts 54°
2026-05-05 09:19 43.50629 7.14728 32970 ft 518 kts 54°
2026-05-05 09:19 43.54801 7.22745 32976 ft 517 kts 54°
2026-05-05 09:20 43.58993 7.30831 32977 ft 518 kts 54°
2026-05-05 09:20 43.63182 7.38943 32977 ft 518 kts 54°
2026-05-05 09:21 43.67353 7.47027 32976 ft 518 kts 54°
2026-05-05 09:21 43.71511 7.55116 32983 ft 518 kts 55°
2026-05-05 09:22 43.75681 7.63262 32978 ft 516 kts 54°
2026-05-05 09:22 43.79818 7.71357 32974 ft 515 kts 54°
2026-05-05 09:23 43.84687 7.78489 32975 ft 511 kts 36°
2026-05-05 09:23 43.90331 7.84526 32974 ft 511 kts 36°
2026-05-05 09:24 43.95900 7.90683 32992 ft 513 kts 42°
2026-05-05 09:24 44.01055 7.97506 32950 ft 513 kts 42°
2026-05-05 09:25 44.06187 8.04357 32973 ft 511 kts 42°
2026-05-05 09:25 44.11288 8.11170 32973 ft 510 kts 42°
2026-05-05 09:26 44.16424 8.18046 32972 ft 512 kts 42°
2026-05-05 09:26 44.21524 8.24884 32979 ft 511 kts 42°
2026-05-05 09:27 44.26681 8.31809 32981 ft 513 kts 42°
2026-05-05 09:27 44.31794 8.38689 32995 ft 512 kts 42°
2026-05-05 09:28 44.36902 8.45589 32974 ft 510 kts 42°
2026-05-05 09:28 44.41982 8.52486 32979 ft 510 kts 43°
2026-05-05 09:29 44.47079 8.59428 32977 ft 510 kts 43°
2026-05-05 09:29 44.52144 8.66328 32979 ft 510 kts 43°
2026-05-05 09:30 44.57245 8.73274 32961 ft 509 kts 42°
2026-05-05 09:30 44.62290 8.80172 32980 ft 508 kts 43°
2026-05-05 09:31 44.67360 8.87129 32987 ft 507 kts 43°
2026-05-05 09:31 44.72396 8.94050 32989 ft 507 kts 43°
2026-05-05 09:32 44.77412 9.00968 32986 ft 507 kts 43°
2026-05-05 09:32 44.82446 9.07933 32997 ft 507 kts 43°
2026-05-05 09:33 44.87476 9.14906 33001 ft 505 kts 43°
2026-05-05 09:33 44.92477 9.21863 32997 ft 503 kts 44°
2026-05-05 09:34 44.97427 9.28759 32997 ft 502 kts 44°
2026-05-05 09:34 45.02384 9.35687 32996 ft 500 kts 44°
2026-05-05 09:35 45.07309 9.42572 32995 ft 499 kts 44°
2026-05-05 09:35 45.14725 9.52986 32996 ft 499 kts 44°
2026-05-05 09:36 45.19629 9.59912 32996 ft 497 kts 45°
2026-05-05 09:36 45.24500 9.66800 33016 ft 495 kts 45°
2026-05-05 09:37 45.29378 9.73715 33023 ft 493 kts 45°
2026-05-05 09:37 45.34205 9.80579 33029 ft 493 kts 45°
2026-05-05 09:38 45.39066 9.87491 32988 ft 492 kts 46°
2026-05-05 09:38 45.43885 9.94370 32985 ft 492 kts 46°
2026-05-05 09:39 45.48709 10.01280 32982 ft 492 kts 46°
2026-05-05 09:39 45.53477 10.08332 32985 ft 492 kts 48°
2026-05-05 09:40 45.58156 10.15457 32981 ft 491 kts 48°
2026-05-05 09:40 45.62801 10.22531 32983 ft 491 kts 48°
2026-05-05 09:41 45.67497 10.29626 32990 ft 490 kts 47°
2026-05-05 09:41 45.72176 10.36686 33010 ft 490 kts 48°
2026-05-05 09:42 45.76879 10.43808 33015 ft 490 kts 48°
2026-05-05 09:42 45.81540 10.50890 33018 ft 490 kts 48°
2026-05-05 09:43 45.86226 10.58048 33021 ft 490 kts 48°
2026-05-05 09:43 45.90871 10.65168 33021 ft 490 kts 48°
2026-05-05 09:44 45.96218 10.71209 33024 ft 492 kts 28°
2026-05-05 09:44 46.02254 10.75838 33017 ft 492 kts 27°
2026-05-05 09:45 46.08294 10.80461 33033 ft 491 kts 28°
2026-05-05 09:45 46.14296 10.85085 33047 ft 489 kts 28°
2026-05-05 09:46 46.20313 10.89739 33062 ft 489 kts 28°
2026-05-05 09:46 46.26283 10.94367 33075 ft 489 kts 28°
2026-05-05 09:47 46.32270 10.99017 33084 ft 489 kts 28°
2026-05-05 09:47 46.38275 11.03704 33084 ft 489 kts 27°
2026-05-05 09:48 46.41379 11.05575 33004 ft 488 kts 14°
2026-05-05 09:48 46.44722 11.06454 32991 ft 484 kts
2026-05-05 09:48 46.51413 11.06498 32990 ft 483 kts 358°
2026-05-05 09:49 46.58142 11.06485 32979 ft 483 kts 358°
2026-05-05 09:49 46.64874 11.06403 32992 ft 481 kts 352°
2026-05-05 09:50 46.71478 11.05206 32977 ft 478 kts 350°
2026-05-05 09:50 46.78052 11.03991 32989 ft 479 kts 350°
2026-05-05 09:51 46.84722 11.02749 32967 ft 481 kts 350°
2026-05-05 09:51 46.91346 11.01482 32953 ft 481 kts 350°
2026-05-05 09:52 46.98037 11.01361 32938 ft 486 kts
2026-05-05 09:52 47.04765 11.02380 32917 ft 486 kts
2026-05-05 09:53 47.11497 11.03432 32903 ft 487 kts
2026-05-05 09:53 47.18241 11.04474 32904 ft 488 kts
2026-05-05 09:54 47.24991 11.05495 32890 ft 487 kts
2026-05-05 09:54 47.31743 11.06517 32869 ft 486 kts
2026-05-05 09:55 47.38445 11.07539 32866 ft 485 kts
2026-05-05 09:55 47.45135 11.08578 32847 ft 484 kts
2026-05-05 09:56 47.51856 11.09620 32847 ft 484 kts
2026-05-05 09:56 47.58382 11.11872 32231 ft 484 kts 25°
2026-05-05 09:57 47.61341 11.14309 31337 ft 485 kts 31°
2026-05-05 09:57 47.64227 11.16848 30429 ft 488 kts 31°
2026-05-05 09:57 47.66175 11.18566 29825 ft 489 kts 31°
2026-05-05 09:57 47.70054 11.21979 28455 ft 490 kts 30°
2026-05-05 09:58 47.72014 11.23696 27743 ft 491 kts 30°
2026-05-05 09:58 47.75090 11.25916 26729 ft 490 kts 20°
2026-05-05 09:58 47.79327 11.28268 25625 ft 479 kts 20°
2026-05-05 09:58 47.81408 11.29414 25267 ft 463 kts 20°
2026-05-05 09:59 47.84380 11.31056 24450 ft 448 kts 20°
2026-05-05 09:59 47.87253 11.32608 23523 ft 438 kts 16°
2026-05-05 09:59 47.90218 11.33543 22423 ft 430 kts
2026-05-05 09:59 47.93177 11.33825 21329 ft 423 kts
2026-05-05 10:00 47.96058 11.34065 20288 ft 418 kts
2026-05-05 10:00 47.98952 11.34317 19282 ft 412 kts